CW8428 Weather Reports


Display with metric or nautical units.
time (UTC)temp
F
wind
direction
speed
MPH
gust
MPH
rain 1hr
in
rain 24hr
in
rain mn
in
humidity
%
barometer
mb
20260504130626 40 114 0.0 2.0 0.00 0.00 0.00 69 1011.7
20260504110627 43 279 1.0 4.0 0.00 0.00 0.00 64 1011.2
20260504081615 44 275 2.0 3.0 0.00 0.00 0.00 59 1011.1
20260504080624 44 275 0.0 2.0 0.00 0.00 0.00 60 1011.1
20260504050613 55 126 0.0 2.0 0.00 0.00 0.00 40 1011.0
20260504045634 55 126 0.0 2.0 0.00 0.00 0.00 39 1011.1
20260504044620 56 126 2.0 2.0 0.00 0.00 0.00 39 1011.1
20260504043649 56 126 1.0 4.0 0.00 0.00 0.00 38 1011.1
20260504042621 57 128 1.0 3.0 0.00 0.00 0.00 37 1011.0
20260504041630 57 128 2.0 4.0 0.00 0.00 0.00 37 1011.0
20260504040618 57 131 0.0 2.0 0.00 0.00 0.00 37 1010.9
20260504035616 58 132 2.0 4.0 0.00 0.00 0.00 37 1010.9
20260504034628 59 130 1.0 3.0 0.00 0.00 0.00 36 1010.9
20260504033616 60 133 1.0 3.0 0.00 0.00 0.00 35 1010.8
20260504032618 60 133 1.0 2.0 0.00 0.00 0.00 35 1010.8
20260504031621 61 133 1.0 3.0 0.00 0.00 0.00 33 1010.7
20260504030628 62 132 1.0 3.0 0.00 0.00 0.00 33 1010.6
20260504025624 62 132 2.0 4.0 0.00 0.00 0.00 31 1010.5
20260504024622 63 132 3.0 4.0 0.00 0.00 0.00 31 1010.5
20260504023631 64 216 1.0 4.0 0.00 0.00 0.00 30 1010.4
20260504022642 64 219 3.0 5.0 0.00 0.00 0.00 29 1010.2
20260504021615 66 238 2.0 4.0 0.00 0.00 0.00 25 1010.3
20260504020644 68 355 2.0 6.0 0.00 0.00 0.00 23 1010.3
20260504015644 70 321 2.0 3.0 0.00 0.00 0.00 22 1010.2
20260504014614 70 355 3.0 5.0 0.00 0.00 0.00 19 1010.3
20260504013626 71 342 3.0 6.0 0.00 0.00 0.00 22 1010.4
20260504012634 71 303 4.0 8.0 0.00 0.00 0.00 22 1010.5
20260504011621 71 311 3.0 6.0 0.00 0.00 0.00 24 1010.5
20260504010628 70 304 3.0 7.0 0.00 0.00 0.00 23 1010.7
20260504005613 71 310 4.0 8.0 0.00 0.00 0.00 20 1010.8
20260504004623 72 320 4.0 8.0 0.00 0.00 0.00 17 1010.8
20260504003631 72 338 5.0 8.0 0.00 0.00 0.00 16 1010.9
20260504002619 72 340 5.0 9.0 0.00 0.00 0.00 16 1010.9
20260504001632 71 308 5.0 11.0 0.00 0.00 0.00 21 1011.0
20260504000622 71 304 9.0 12.0 0.00 0.00 0.00 19 1011.0
20260503235623 72 296 4.0 11.0 0.00 0.00 0.00 21 1011.0
20260503234630 73 311 7.0 11.0 0.00 0.00 0.00 17 1011.0
20260503233622 73 287 9.0 12.0 0.00 0.00 0.00 20 1011.1
20260503232630 73 279 8.0 11.0 0.00 0.00 0.00 19 1011.1
20260503231617 74 209 3.0 10.0 0.00 0.00 0.00 16 1011.2
20260503230626 74 293 4.0 8.0 0.00 0.00 0.00 16 1011.4
20260503225631 74 334 4.0 10.0 0.00 0.00 0.00 14 1011.5
20260503224621 74 254 7.0 13.0 0.00 0.00 0.00 17 1011.7
20260503223632 74 277 7.0 10.0 0.00 0.00 0.00 16 1011.9
20260503222641 74 229 8.0 12.0 0.00 0.00 0.00 14 1011.9
20260503221615 74 250 5.0 10.0 0.00 0.00 0.00 16 1012.0
20260503220624 74 205 4.0 8.0 0.00 0.00 0.00 16 1012.1
20260503215627 74 193 5.0 12.0 0.00 0.00 0.00 14 1012.4
20260503214614 74 279 7.0 12.0 0.00 0.00 0.00 15 1012.6
20260503213624 74 202 8.0 11.0 0.00 0.00 0.00 13 1012.7
20260503212612 73 190 6.0 12.0 0.00 0.00 0.00 16 1012.9
20260503211619 73 210 6.0 11.0 0.00 0.00 0.00 16 1013.0
20260503210626 73 246 6.0 12.0 0.00 0.00 0.00 17 1013.1
20260503205632 73 286 6.0 13.0 0.00 0.00 0.00 15 1013.1
20260503204619 73 289 6.0 10.0 0.00 0.00 0.00 17 1013.3
20260503203628 73 306 12.0 14.0 0.00 0.00 0.00 20 1013.3
20260503202615 72 5 7.0 12.0 0.00 0.00 0.00 19 1013.4
20260503201628 73 304 5.0 13.0 0.00 0.00 0.00 16 1013.6
20260503200617 73 291 5.0 12.0 0.00 0.00 0.00 17 1013.8
20260503195616 72 300 8.0 11.0 0.00 0.00 0.00 18 1013.9
20260503194627 72 309 1.0 8.0 0.00 0.00 0.00 16 1014.0
20260503193641 72 302 3.0 8.0 0.00 0.00 0.00 16 1014.1
20260503192631 72 211 5.0 9.0 0.00 0.00 0.00 17 1014.2
20260503191618 72 270 6.0 10.0 0.00 0.00 0.00 18 1014.3
20260503190613 72 284 6.0 9.0 0.00 0.00 0.00 16 1014.5
20260503185614 71 277 6.0 9.0 0.00 0.00 0.00 22 1014.6
20260503184625 70 287 6.0 8.0 0.00 0.00 0.00 25 1014.8
20260503183616 69 273 4.0 7.0 0.00 0.00 0.00 26 1014.9
20260503182631 68 275 1.0 8.0 0.00 0.00 0.00 26 1015.1
20260503181620 67 281 2.0 6.0 0.00 0.00 0.00 33 1015.3
20260503180640 66 266 2.0 6.0 0.00 0.00 0.00 32 1015.5
20260503175619 65 235 2.0 4.0 0.00 0.00 0.00 36 1015.5
20260503174647 64 227 3.0 5.0 0.00 0.00 0.00 35 1015.7
20260503173635 63 284 2.0 7.0 0.00 0.00 0.00 35 1015.9
20260503172625 62 275 1.0 4.0 0.00 0.00 0.00 36 1016.1
20260503171613 61 283 1.0 4.0 0.00 0.00 0.00 36 1016.3
20260503170622 60 269 3.0 6.0 0.00 0.00 0.00 38 1016.4
20260503150621 49 30 2.0 3.0 0.00 0.00 0.00 49 1018.1